Zurück zum Katalog

HAINAN-1 01

AktivWissenschaftPO
NORAD 51825·PAYLOAD·🇨🇳 China
Dieser Satellitenname wurde noch nicht durch offizielle Quellen bestätigt.

Gestartet Feb 27, 2022 von Wenchang Space Launch Site

Loading…

Nächste Überflüge (nächste 24 Stunden)

TLE

AktuellSource: Space-Track

Epoche: Sep 11, 2026, 23:38 UTC

1 51825U 22019B   26254.98526623  .05925279  24873-5  55233-3 0  9994
2 51825  97.3166 354.2449 0012094 269.7432  90.2481 16.38561643253563

Verfolge HAINAN-1 01 in Echtzeit mit AllMySat

Download on the App Store